FENGYUN 1C DEB *, 46995

Orbit data source: Space-Track

FENGYUN 1C DEB *, 46995 is space debris in SSO originally from a launch on Mon, 10 May 1999 UTC launched from the Taiyaun Space Center, China (TSC). Fengyun 1C debris stems from the Chinese weather satellite Fengyun-1C, which was intentionally destroyed by a Chinese anti-satellite missile in 2007. This event dramatically increased the amount of space debris, with thousands of trackable fragments posing hazards to satellites and human spaceflight. The Fengyun 1C debris cloud has become a focal point in discussions about space sustainability and the need for international regulations to prevent the creation of new debris.

Loading next visibility...
Identifier
46995, 1999-025EZV
Orbit
SSO
Country
Flag of CNCN / PRC
Related business
Manufacturer
Unknown
Mission
Spacecraft
Bus & Motor
Unknown
Mass
Unknown
Launch date (UTC)
1999-05-10 (27 years ago)
Launch vehicle
Unknown
Launch site
Taiyaun Space Center, China (TSC)
Object type
Payload
Rocket body
Debris
Shape & HBR
Unknown shape, 1.1 m
Radar Cross Section
Small (<0.1 m²)

Expand to show TLE details & history
Last TLE update: 2 days ago

TLE from 2 days ago
0 FENGYUN 1C DEB *
1 46995U 99025EZV 26149.16774070  .00002461  00000-0  18617-2 0  9990
2 46995  98.5895 222.7095 0182843  20.3963 340.4378 13.87301074627890
Epoch: 2026-05-29T04:01Z
TLE epoch observation values (Epoch: 2026-05-29T04:01:32.796Z)
Latitude
0.00003°
Longitude
-84.37916°
Altitude
815.185 km
Speed
7.509 km/s
True Right ascension
14h 50m 50s
True Declination
0° 00' 00"
Sunlit
Object was in full shadow at epoch
Visualization orbit readout
Latitude
Unknown
Longitude
Unknown
Altitude
Unknown
Speed
Unknown
Apparent Right ascension
Unknown
Apparent Declination
Unknown
Sunlit
N/A
Visualization observer readout
Local Sidereal Time
20:32:37
Azimuth
Unknown
Elevation
Unknown
Doppler factor
Unknown
Orbital elements
Apogee altitude
1,069.021 km
Perigee altitude
801.579 km
Semi-major axis
7,313.437 km
Eccentricity
0.01828
Inclination
98.5895°
RAAN
222.7095°
Arg. of periapsis
20.3963°
True anomaly
339.72085°
Mean anomaly
340.4378°
Eccentric anomaly
340.08089°
Mean motion
3.47025 °/min
Orbital period
103.74 mins
BSTAR
0.0018617
Loading maneuver chart data...
Computing Atmospheric mass density...
Loading historical data...
Loading historical data...
Loading historical data...
Loading historical data...
Loading historical data...
Loading historical data...
Loading historical data...

Documentation

Showing up to 5 results
|